Location: Bouillancy
(49.1149°N, 2.9308°E)
Time: 08:06:39
(UTC+00:00)

NOSS 3-1 (C) - Pass Details

Date: 30 September 2020
Orbit: 743 x 1466 km, 63.4° (Epoch: 09 October)

Event Time Altitude Azimuth Distance (km) Brightness Sun altitude
Rises 21:39:21 0° 317° (NW) 3,889 7.6 -37.6°
Reaches altitude 10° 21:41:50 10° 317° (NW) 3,027 6.8 -37.9°
Enters shadow 21:47:29 59° 313° (NW) 1,422 4.4 -38.5°
